Other Public Products
Issued by NWS Charleston, SC

Current Version | Previous Version | Graphics & Text | Print | Product List | Glossary On
Versions: 1 2 3 4 5 6 7 8 9 10 11 12 13 14 15 16 17 18 19 20 21 22 23 24 25 26 27 28 29 30 31 32 33 34 35 36 37 38 39 40 41 42 43 44 45 46 47 48 49 50
000
FPUS82 KCHS 211027
OPUCHS

TEST...KCHS/KSAV Gateway Observations...TEST
National Weather Service Charleston SC
500 AM EST SUN JAN 21 2018

NOTE: "fair" indicates few or no clouds below 12,000 feet with no
significant weather and/or obstructions to visibility.

SCZ050-WAZ558-NCZ071-TXZ119-213-PAZ071-DCZ001-FLZ074-172-MI076-
NYZ176-178-MAZ016-IL014-TNZ027-NJZ106-GAZ044-MD014-211100-

...Gateway Observations for Charleston International...

CITY           SKY/WX    TMP DP  RH WIND       PRES   REMARKS
Chas Airport   MOCLDY    48  31  51 CALM      30.24R
Seattle        CLOUDY    49  35  58 S18G31    29.89F
Charlotte      FAIR      40  33  76 CALM      30.22R
Dallas DFW     CLOUDY    65  59  81 S20       29.87F
Dallas Love    CLOUDY    64  59  83 S15G24    29.89F
Philladelphia  FAIR      33  28  81 W3        30.14R
Wash National  FAIR      34  32  92 CALM      30.16R
Baltimore      FAIR      34  30  85 CALM      30.14R
Miami          CLOUDY    71  64  78 E14       30.14F
Detroit        CLOUDY    36  34  92 S5        30.06S FOG     WCI  32
Newark         FAIR      37  27  67 CALM      30.10R
Laguardia      FAIR      43  27  53 VRB3      30.08R
J F K          FAIR      37  29  72 W8        30.10R WCI  31
Boston Logan   CLOUDY    36  29  75 S8        30.04R WCI  30
Ft. Lauderdale MOCLDY    71  66  84 E16       30.14F
Chicago O`Hare CLOUDY    38  34  85 CALM      29.97F
Chicago Midway MOCLDY    40  38  93 S7        29.97F WCI  35
Houston Bush   CLOUDY    67  65  93 S12       30.00F
Houston Hobby  CLOUDY    65  65 100 S9        30.01S
Nashville      MOCLDY    51  38  60 S6        30.15F
Atlanta        FAIR      43  37  79 NW3       30.22F

$$

GAZ044-118-TXZ119-213-NCZ071-DCZ001-MDZ014-506-PAZ021-071-NJZ106-
NYZ176-178-MAZ106-OHZ011-021-055-MIZ076-KYZ091-ILZ014-INZ047-
MNZ060-ONZ431-211100-

...Gateway Observations for Savannah International...

CITY           SKY/WX    TMP DP  RH WIND       PRES   REMARKS
Savannah Arpt  FAIR      47  32  56 SW3       30.26R
Atlanta        FAIR      43  37  79 NW3       30.22F
Charlotte      FAIR      40  33  76 CALM      30.22R
Dallas DFW     CLOUDY    65  59  81 S20       29.87F
Houston Bush   CLOUDY    67  65  93 S12       30.00F
Wash National  FAIR      34  32  92 CALM      30.16R
Wash Dulles    FAIR      29  26  89 CALM      30.15R
Baltimore      FAIR      34  30  85 CALM      30.14R
Philadelphia   FAIR      33  28  81 W3        30.14R
Newark         FAIR      37  27  67 CALM      30.10R
Laguardia      FAIR      43  27  53 VRB3      30.08R
J F K          FAIR      37  29  72 W8        30.10R WCI  31
Boston         CLOUDY    36  29  75 S8        30.04R WCI  30
Pittsburg      DRZL/FOG  40  40 100 S3        30.11S VSB 1
Akron          DRZL/FOG  38  36  92 SW7       30.09F VSB 1/2 WCI  33
Cleveland      CLOUDY    40  34  79 S7        30.11S WCI  35
Cincinnati     CLOUDY    46  40  79 S5        30.08S
Columbus       CLOUDY    38  38 100 S3        30.10S FOG
Detroit        CLOUDY    36  34  92 S5        30.06S FOG     WCI  32
Chicago O`Hare CLOUDY    38  34  85 CALM      29.97F
Minneapolis    CLOUDY    33  31  92 CALM      29.96S
Indianapolis   CLOUDY    40  40 100 CALM      30.04S FOG
Toronto Canada CLOUDY    28  25  86 SW6       30.06R WCI  22

$$




USA.gov is the U.S. government's official web portal to all federal, state and local government web resources and services.